This demonstration page uses our WeatherBlox Daily Observations layout. Learn more.

Left ArrowRight Arrow

53.62937, 11.41316

Hourly Observations for November 20, 2021

Temp ( °F °C ) Dew Point ( °F °C ) Humidity (%) Winds ( mph kmh ) Pressure ( in mb ) Visibility ( mi km ) Precip ( " mm )
12:20 am 00:20 Cloudy 54 12 50 10 88 88 W 10 17 30.21 1023 30 48 N/A
12:50 am 00:50 Cloudy 54 12 52 11 94 94 W 12 19 30.18 1022 30 48 N/A
1:20 am 01:20 Cloudy 54 12 50 10 88 88 W 10 17 30.18 1022 30 48 N/A
1:50 am 01:50 Cloudy 52 11 50 10 94 94 W 12 19 30.21 1023 4 7 N/A
2:20 am 02:20 Cloudy 52 11 50 10 94 94 W 12 19 30.18 1022 30 48 N/A
2:50 am 02:50 Mostly Cloudy 52 11 50 10 94 94 W 10 17 30.18 1022 5 8 N/A
3:20 am 03:20 Mostly Cloudy 52 11 50 10 94 94 W 9 15 30.18 1022 6 9 N/A
3:50 am 03:50 Mostly Cloudy 52 11 50 10 94 94 WSW 6 9 30.18 1022 3 5 N/A
4:20 am 04:20 Mostly Cloudy 52 11 50 10 94 94 W 7 11 30.18 1022 3 5 N/A
4:50 am 04:50 Partly Cloudy 52 11 50 10 94 94 W 7 11 30.18 1022 3 5 N/A
5:20 am 05:20 Partly Cloudy 52 11 50 10 94 94 WSW 10 17 30.18 1022 3 5 N/A
5:50 am 05:50 Partly Cloudy 52 11 50 10 94 94 WSW 10 17 30.15 1021 30 48 N/A
6:20 am 06:20 Partly Cloudy 52 11 50 10 94 94 WSW 8 13 30.15 1021 30 48 N/A
6:50 am 06:50 Mostly Cloudy 52 11 48 9 88 88 WSW 9 15 30.15 1021 30 48 N/A
7:20 am 07:20 Mostly Cloudy 52 11 50 10 94 94 W 9 15 30.15 1021 30 48 N/A
7:50 am 07:50 Mostly Cloudy 52 11 50 10 94 94 WSW 10 17 30.15 1021 30 48 N/A
8:20 am 08:20 Mostly Cloudy 52 11 50 10 94 94 WSW 9 15 30.15 1021 30 48 N/A
8:50 am 08:50 Cloudy 52 11 50 10 94 94 WSW 9 15 30.15 1021 30 48 N/A
9:20 am 09:20 Cloudy 52 11 50 10 94 94 WSW 9 15 30.15 1021 30 48 N/A
9:50 am 09:50 Mostly Cloudy 52 11 50 10 94 94 WSW 10 17 30.12 1020 30 48 N/A
10:20 am 10:20 Cloudy 52 11 50 10 94 94 WSW 12 19 30.12 1020 30 48 N/A
10:50 am 10:50 Mostly Cloudy 52 11 48 9 88 88 WSW 12 19 30.12 1020 30 48 N/A
11:20 am 11:20 Mostly Cloudy 54 12 48 9 82 82 WSW 12 19 30.12 1020 30 48 N/A
11:50 am 11:50 Mostly Cloudy 54 12 48 9 82 82 WSW 13 20 30.09 1019 30 48 N/A
12:20 pm 12:20 Mostly Cloudy 54 12 48 9 82 82 W 10 17 30.09 1019 30 48 N/A
12:50 pm 12:50 Mostly Cloudy 54 12 48 9 82 82 WSW 12 19 30.09 1019 30 48 N/A
1:20 pm 13:20 Mostly Cloudy 52 11 46 8 82 82 WSW 10 17 30.06 1018 30 48 N/A
1:50 pm 13:50 Mostly Cloudy 52 11 46 8 82 82 WSW 9 15 30.03 1017 30 48 N/A
2:20 pm 14:20 Cloudy 52 11 46 8 82 82 WSW 10 17 30.03 1017 30 48 N/A
2:50 pm 14:50 Cloudy 52 11 46 8 82 82 WSW 10 17 30.00 1016 30 48 N/A
3:20 pm 15:20 Mostly Cloudy 52 11 46 8 82 82 WSW 9 15 30.00 1016 30 48 N/A
3:50 pm 15:50 Mostly Cloudy with Light Rain 50 10 48 9 94 94 WSW 10 17 29.97 1015 4 7 N/A
4:20 pm 16:20 Cloudy with Light Rain 50 10 48 9 94 94 WSW 9 15 29.97 1015 4 6 N/A
4:50 pm 16:50 Mostly Cloudy with Light Rain 50 10 46 8 88 88 WSW 13 20 29.97 1015 6 9 N/A
5:20 pm 17:20 Cloudy 50 10 46 8 88 88 WSW 13 20 29.94 1014 30 48 N/A
5:50 pm 17:50 Mostly Cloudy with Light Rain 50 10 48 9 94 94 WSW 12 19 29.94 1014 4 7 N/A
6:20 pm 18:20 Cloudy with Light Rain 50 10 46 8 88 88 WSW 13 20 29.94 1014 3 5 N/A
6:50 pm 18:50 Mostly Cloudy with Light Rain 50 10 46 8 88 88 WSW 13 20 29.94 1014 30 48 N/A
7:20 pm 19:20 Mostly Cloudy 50 10 46 8 88 88 W 10 17 29.91 1013 30 48 N/A
7:50 pm 19:50 Mostly Cloudy 50 10 46 8 88 88 WSW 12 19 29.91 1013 30 48 N/A
8:20 pm 20:20 Cloudy 50 10 46 8 88 88 WSW 14 22 29.89 1012 30 48 N/A
8:50 pm 20:50 Mostly Cloudy 50 10 46 8 88 88 WSW 13 20 29.89 1012 30 48 N/A
9:20 pm 21:20 Cloudy 50 10 46 8 88 88 WSW 12 19 29.86 1011 30 48 N/A
9:50 pm 21:50 Mostly Cloudy 50 10 46 8 88 88 WSW 12 19 29.86 1011 30 48 N/A
10:20 pm 22:20 Mostly Cloudy 48 9 46 8 94 94 WSW 13 20 29.86 1011 30 48 N/A
10:50 pm 22:50 Cloudy 48 9 46 8 94 94 WSW 13 20 29.83 1010 30 48 N/A
11:20 pm 23:20 Cloudy 48 9 46 8 94 94 WSW 12 19 29.83 1010 30 48 N/A
11:50 pm 23:50 Mostly Cloudy 48 9 46 8 94 94 WSW 13 20 29.80 1009 30 48 N/A

Powered by AerisWeather